STARLINK-1808 (46707 NORAD) Tracking and Keplerian Element Data

This shows tracking and keplerian element data for the satellite.

Feedback or suggestion? Click here.




ElementValue
Catalog46707
NameSTARLINK-1808
Epoch Orbit181
Epoch Day336.91667824
Epoch Year2020
RAAN250.9621
Inclination53.0553
Eccentricity0.0001272
Argument of Perigee62.8555
Mean Anonmoly33.1641
Mean Motion15.62779044
Decay Rate-0.00049588
L11 46707U 20073AP 20336.91667824 -.00049588 00000-0 -53849-3 0 9991
L22 46707 53.0553 250.9621 0001272 62.8555 33.1641 15.62779044 1818

Live tracking and technical data element details for STARLINK-1808 (NORAD 46707). STARLINK-1808 can be tracked NOW for your location showing map with azimuth and elevation plus other details from your city location.

Track the satellite on the map from your city or location and see movement details for azimuth, elevation, latitude, longitude, range, height, and movement on the map or in text.







IsCatalogInMostPopularTable: catalog: 46707, numindb: 10
Update: records affected: 1



GetName: 46707 STARLINK-1808

Hit Count: updated at: Wed, 02 Dec 2020 17:57:42 GMT